CCTS

CCTS

Centro de Ciências, Tecnologia e Saúde

Meteorologia

Sobre Estação Meteorológica

MONITORAMENTO HIDROMETEOROLÓGICO DA REGIÃO DO CURIMATAÚ ORIENTAL DO ESTADO DA PARAÍBA

A estação hidrometeorológica do Campus VIII/CCTS da UEPB em Araruna-PB tem o objetivo de melhorar o conhecimento dos dados meteorológicos, tais como, temperatura do ar, umidade relativa, direção e velocidade do vento, precipitação pluvial, radiação solar, bem como, criar planilhas eletrônicas com os dados hidrometeológicos da estação que serão utilizados para pesquisas no monitoramento climático da região do curimataú oriental paraibano.

DADOS DE 2019

JANEIRO

Resumo Diário janeiro de 2019 – Dados da Estação Metereológica – UEPB VIII
Data Temperatura (°C) Umidade Relativa (%) Acum. Chuva (mm) Pressão Méd. (hPa)
Mínima Média Máxima Mínima Média Máxima
01/01/2019 21,628 25,851 33,157 53,2 78,6 97,5 0 951,11
02/01/2019 21,772 25,521 32,355 48,2 77,2 95,0 0 951,51
03/01/2019 20,770 24,978 31,944 50,8 78,6 95,9 0 950,52
04/01/2019 20,436 25,171 31,357 53,8 79,9 97,7 0 950,97
05/01/2019 22,034 25,175 31,255 56,0 81,5 96,6 0 950,91
06/01/2019 21,246 24,708 30,621 55,2 80,4 96,9 0 950,60
07/01/2019 21,032 24,476 31,230 53,1 83,6 97,1 0 950,15
08/01/2019 21,270 24,524 29,515 63,3 84,8 97,6 0 950,18
09/01/2019 21,485 24,425 30,621 58,4 84,4 98,8 0 949,62
10/01/2019 21,199 25,074 32,150 50,8 77,7 96,7 0 949,35
11/01/2019 20,555 25,449 32,150 45,5 74,8 97,1 0 949,55
12/01/2019 21,437 25,134 33,027 50,3 76,9 91,0 0 950,41
13/01/2019 20,341 25,511 32,924 43,4 77,6 96,9 0 950,50
14/01/2019 21,628 25,539 31,510 56,7 81,4 96,5 0 950,02
15/01/2019 20,174 24,875 32,047 51,1 78,1 96,9 0 950,87
16/01/2019 21,151 25,694 32,562 51,5 78,3 95,1 0 951,12
17/01/2019 21,819 25,638 32,073 50,6 81,5 97,0 0 950,45
18/01/2019 21,485 25,302 33,183 53,1 81,5 98,9 0 950,57
19/01/2019 20,770 25,137 32,924 49,7 82,2 98,7 2 950,29
20/01/2019 22,106 25,219 30,318 58,7 83,8 99,1 0 951,19
21/01/2019 21,604 25,395 31,689 47,1 76,1 94,9 0 951,02
22/01/2019 19,817 25,014 31,561 46,6 78,5 97,7 0 950,54
23/01/2019 21,628 25,718 33,495 43,1 74,7 95,2 0 950,65
24/01/2019 21,294 25,787 32,846 44,8 75,0 96,9 0 950,06
25/01/2019 21,700 25,986 32,768 43,5 73,4 94,4 0 949,62
26/01/2019 19,984 22,974 29,464 67,0 91,3 99,4 11 951,73
27/01/2019 20,650 24,645 31,153 59,0 83,8 99,1 0 951,26
28/01/2019 20,246 24,232 31,204 59,6 84,3 97,7 1 950,60
29/01/2019 20,746 25,065 31,740 58,3 80,5 98,4 0 949,90
30/01/2019 21,079 25,688 32,407 49,3 76,0 92,5 0 949,65
31/01/2019 22,202 25,879 33,261 50,8 78,5 93,1 0 949,53
Resumo Mensal janeiro de 2019 – Dados da Estação Metereológica – UEPB VIII
Mês Temperatura (°C) Umidade Relativa (%) Acum. Chuva (mm) Pressão Méd. (hPa)
Mínima Média Máxima Mínima Média Máxima
janeiro 19,817 25,154 33,495 43,1 79,8 99,4 14,6 950,47

DADOS JANEIRO 2019
DADOS JANEIRO 2019
DADOS-JANEIRO-2019.ods
129.3 KiB
70 Downloads
Details

FEVEREIRO

Resumo Diário fevereiro de 2019 – Dados da Estação Metereológica – UEPB VIII
Data Temperatura (°C) Umidade Relativa (%) Acum. Chuva (mm) Pressão Méd. (hPa)
Mínima Média Máxima Mínima Média Máxima
01/02/2019 21,509 25,574 33,339 49,7 79,5 95,8 0 949,84
02/02/2019 21,342 25,112 31,382 53,3 81,6 98,6 0 950,08
03/02/2019 20,412 23,851 31,740 61,4 90,7 99,0 10 949,84
04/02/2019 21,485 24,926 31,001 66,1 89,3 99,6 2 949,06
05/02/2019 21,270 23,372 27,186 86,4 97,9 100,0 11 949,16
06/02/2019 20,698 23,172 26,842 85,7 97,3 100,0 5 949,62
07/02/2019 21,342 24,458 29,966 65,7 86,5 100,0 2 948,99
08/02/2019 20,126 23,946 29,840 60,7 85,1 99,5 1 948,55
09/02/2019 21,079 25,078 30,874 54,5 81,5 99,4 1 948,15
10/02/2019 21,557 23,221 26,744 82,9 94,5 99,6 1 949,27
11/02/2019 21,557 24,372 29,865 71,2 88,8 98,1 1 949,88
12/02/2019 21,151 24,609 29,389 67,9 86,4 98,1 1 949,56
13/02/2019 20,936 22,061 23,497 94,3 98,4 100,0 1 950,99
14/02/2019 21,533 24,381 29,140 74,0 90,9 99,4 1 950,77
15/02/2019 22,561 24,094 29,140 79,5 95,3 100,0 0 950,09
16/02/2019 21,390 23,927 29,389 75,4 96,1 100,0 1 949,90
17/02/2019 22,441 24,836 29,590 75,4 93,1 100,0 0 950,12
18/02/2019 21,867 23,431 26,744 92,8 99,1 100,0 0 950,56
19/02/2019 21,676 24,923 30,773 66,9 91,2 100,0 1 949,56
20/02/2019 20,317 24,609 29,991 65,5 88,6 99,7 0 948,65
21/02/2019 21,270 24,996 30,419 67,8 89,0 100,0 0 949,53
22/02/2019 22,034 25,134 30,293 68,3 89,8 100,0 0 950,74
23/02/2019 22,130 23,131 26,061 88,8 98,3 100,0 0 950,58
24/02/2019 22,298 24,403 28,866 80,6 94,2 100,0 0 949,33
25/02/2019 21,509 24,205 29,065 72,9 94,0 100,0 0 949,47
26/02/2019 20,055 24,551 28,791 73,7 90,6 100,0 0 950,08
27/02/2019 21,939 24,978 29,916 71,9 90,6 100,0 0 950,59
28/02/2019 21,676 24,126 28,816 71,8 91,5 100,0 0 951,28
Resumo Mensal fevereiro de 2019 – Dados da Estação Metereológica – UEPB VIII
Mês Temperatura (°C) Umidade Relativa (%) Acum. Chuva (mm) Pressão Méd. (hPa)
Mínima Média Máxima Mínima Média Máxima
fevereiro 20,055 24,267 33,339 49,7 91,1 100,0 40,0 949,79

DADOS FEVEREIRO 2019
DADOS FEVEREIRO 2019
DADOS-FEVEREIRO-2019.ods
121.9 KiB
72 Downloads
Details

MARÇO


Resumo Diário março de 2019 – Dados da Estação Metereológica – UEPB VIII
Data Temperatura (°C) Umidade Relativa (%) Acum. Chuva (mm) Pressão Méd. (hPa)
Mínima Média Máxima Mínima Média Máxima
01/03/2019 22,106 23,485 26,989 80,6 94,1 100,0 0 951,41
02/03/2019 21,581 23,323 26,353 83,4 95,4 100,0 0 951,03
03/03/2019 21,199 23,061 26,916 84,6 96,5 100,0 0 950,71
04/03/2019 21,008 23,352 26,867 86,2 97,0 100,0 0 951,24
05/03/2019 21,795 24,120 27,875 76,9 91,5 100,0 0 950,80
06/03/2019 20,936 24,326 29,265 68,4 89,1 100,0 0 951,36
07/03/2019 21,366 24,484 29,540 68,7 87,8 99,5 0 951,60
08/03/2019 21,127 24,760 30,369 67,4 88,3 100,0 0 951,03
09/03/2019 21,437 24,675 30,066 58,7 85,5 99,0 0 950,30
10/03/2019 20,603 24,220 30,041 69,1 89,6 100,0 1 949,66
11/03/2019 21,604 24,816 29,840 67,2 87,8 99,9 0 949,63
12/03/2019 21,366 23,090 25,963 91,0 98,7 100,0 27 949,93
13/03/2019 22,058 23,196 25,404 92,5 98,2 100,0 0 949,95
14/03/2019 21,294 23,887 28,667 83,7 96,8 100,0 12 949,30
15/03/2019 22,082 24,123 28,221 76,8 93,6 100,0 0 949,05
16/03/2019 20,698 24,295 29,240 66,4 88,3 100,0 0 949,38
17/03/2019 21,628 24,594 29,490 73,7 91,9 100,0 0 949,84
18/03/2019 21,819 23,422 27,530 82,0 96,4 100,0 6 949,90
19/03/2019 21,628 24,703 29,815 76,6 93,7 100,0 0 948,75
20/03/2019 21,700 25,485 31,586 67,1 89,1 100,0 0 948,19
21/03/2019 22,202 25,012 31,765 66,0 91,7 100,0 6 948,89
22/03/2019 22,250 25,546 31,103 68,9 90,6 100,0 0 949,72
23/03/2019 22,561 24,821 30,444 74,9 92,5 100,0 0 950,18
24/03/2019 22,321 25,286 30,117 71,1 89,1 100,0 0 950,08
25/03/2019 21,843 25,112 31,077 55,2 85,3 100,0 0 949,66
26/03/2019 21,270 24,124 30,142 69,1 91,9 100,0 2 949,46
27/03/2019 20,579 23,991 28,965 73,2 92,1 100,0 10 950,94
28/03/2019 20,341 23,490 28,023 81,8 94,7 100,0 0 951,16
29/03/2019 21,175 24,476 29,140 76,3 90,8 99,2 0 950,83
30/03/2019 22,058 24,713 29,015 76,4 93,4 100,0 2 949,59
31/03/2019 21,963 23,425 26,256 85,0 96,4 100,0 1 949,47
 

 

Resumo Mensal março de 2019 – Dados da Estação Metereológica – UEPB VIII
Mês Temperatura (°C) Umidade Relativa (%) Acum. Chuva (mm) Pressão Méd. (hPa)
Mínima Média Máxima Mínima Média Máxima
março 20,341 24,240 31,765 55,2 92,2 100,0 68,4 950,10

DADOS MARÇO 2019
DADOS MARÇO 2019
DADOS-MARCO-2019.ods
135.5 KiB
79 Downloads
Details

ABRIL


 

DADOS DE 2018

JANEIRO


FEVEREIRO


MARÇO


ABRIL


MAIO


JUNHO


JULHO


AGOSTO


SETEMBRO


OUTUBRO


NOVEMBRO


DEZEMBRO